Temp
15 15 15 16 12 10 12 14 15 14 16 16 15 16 14 13 15 15 15 15 16 17 16 15 15 15 15 14 15 15 15 14 15 15 14 14 14 14 14 15 15 14 14 15 14 13 13 13 14
15 15 15 15 11 11 11 13 15 15 16 16 15 15 14 13 14 14 15 16 16 16 16 16 15 15 15 15 14 15 15 15 15 15 15 15 14 14 14 14 14 14 14 12 12 13 13 12 13
15 15 15 11 10 11 12 14 15 16 16 17 15 15 14 14 14 14 14 15 16 15 15 15 15 15 15 14 14 14 14 14 15 15 15 15 14 14 14 14 14 14 13 12 12 12 12 11 12
15 15 13 11 11 12 13 15 15 14 16 16 15 13 14 14 14 14 14 15 15 15 14 14 14 14 14 15 15 14 14 14 14 15 15 14 15 13 14 14 14 13 13 12 11 11 11 11 11
14 14 10 11 12 12 13 13 13 14 15 15 15 14 13 14 14 14 14 14 15 14 14 14 14 14 14 14 14 14 14 14 14 14 14 14 14 14 14 13 13 13 13 13 13 12 11 11 11
13 12 10 10 11 13 13 13 13 14 14 14 14 14 13 13 14 14 15 15 15 14 14 14 14 14 14 14 14 14 14 14 14 13 14 13 14 14 14 13 13 13 13 13 13 12 12 11 11
11 9 10 11 12 13 13 13 13 12 13 14 14 13 13 13 14 14 14 14 14 15 14 14 14 13 13 13 13 13 13 14 14 13 14 13 13 14 14 14 13 13 13 13 13 12 12 11 11
13 9 11 11 11 13 11 12 13 13 13 14 14 12 13 13 13 13 13 14 14 14 14 13 13 13 14 13 13 13 12 13 13 13 13 13 13 13 13 14 13 13 13 13 13 12 12 11 12
13 9 9 12 11 12 11 11 12 12 12 13 14 13 13 13 13 13 13 14 14 14 14 14 14 13 13 13 13 13 13 13 13 12 13 13 13 13 13 12 13 13 13 12 12 12 12 11 11
9 7 10 10 10 10 10 10 11 12 10 12 13 13 12 12 12 12 12 13 13 13 13 13 13 13 13 13 13 13 13 12 13 12 12 12 13 13 13 12 12 12 12 12 12 12 11 11 11
9 8 9 11 10 10 10 9 10 9 10 11 12 12 12 12 12 12 12 12 12 12 12 12 12 12 12 12 13 12 12 12 12 11 11 12 12 12 12 13 12 12 11 11 11 11 11 11 11
10 10 10 10 10 10 9 10 9 9 11 12 11 11 12 12 12 12 12 12 12 11 11 11 11 11 11 11 11 12 12 12 12 12 11 12 11 11 11 12 12 11 11 11 11 11 11 11 11
10 9 10 9 10 10 9 8 8 9 12 11 11 11 11 11 11 12 12 12 12 11 11 11 11 11 11 11 11 10 10 10 10 10 11 11 9 11 11 11 11 11 11 11 11 12 11 10 10
9 8 8 9 9 9 8 7 8 10 11 10 10 11 11 12 12 12 12 12 11 11 10 10 10 10 10 10 10 10 10 10 9 9 9 10 10 11 10 10 10 10 11 11 12 11 11 10 10
8 9 9 8 8 8 7 6 4 9 10 10 11 11 10 10 11 12 12 11 10 10 9 9 9 9 9 9 9 10 10 10 10 9 9 9 9 9 10 8 9 10 10 11 11 11 11 10 10
7 7 8 7 5 7 8 7 9 8 8 8 8 9 9 10 11 11 11 10 10 9 8 8 8 8 8 8 8 8 8 8 9 9 9 8 9 9 8 8 9 8 10 10 10 11 11 10 10
5 9 8 6 4 4 6 6 6 8 7 7 7 8 9 9 10 10 10 9 8 8 7 7 7 7 7 7 7 8 8 8 8 8 8 9 8 9 9 7 7 8 7 9 10 10 10 11 10
10 9 7 5 5 3 4 4 5 6 6 7 10 10 9 8 9 9 8 8 7 8 8 8 8 8 8 8 8 8 8 7 7 7 7 8 8 8 7 7 7 7 7 7 9 9 10 10 11
5 6 5 4 4 3 3 2 4 4 5 6 8 9 8 8 8 8 8 8 9 9 10 10 9 8 7 6 5 5 5 6 5 5 5 5 5 6 6 6 6 6 7 7 7 10 10 9 10
5 5 5 4 4 4 2 3 3 3 5 8 8 7 7 7 7 8 9 9 9 9 9 8 7 6 4 3 3 1 1 1 2 3 3 3 2 3 4 5 5 5 6 7 8 8 9 9 9
5 5 5 5 3 2 1 4 6 7 7 7 7 7 7 7 8 8 9 9 8 8 7 6 4 3 2 1 1 1 1 1 1 1 1 1 0 0 2 3 3 4 4 6 8 9 6 9 9
8 4 4 3 3 2 3 3 5 6 6 5 5 6 7 7 7 7 7 7 7 6 4 3 2 1 -0 -0 -0 -0 -1 -1 -1 -1 -0 -0 -1 -0 -0 0 0 2 3 3 6 7 7 7 9
5 3 3 3 1 1 3 0 4 4 5 4 3 6 6 6 6 7 6 5 5 3 1 -0 0 0 -0 -1 -2 -2 -2 -3 -2 -1 -2 -2 -2 -2 -2 -1 -1 -0 1 2 3 6 8 8 6
3 3 2 1 1 -2 3 3 4 5 6 6 4 6 6 6 6 5 5 4 4 2 1 -0 -1 -1 -2 -2 -2 -3 -4 -3 -3 -2 -3 -2 -2 -2 -3 -3 -1 -1 -0 1 2 3 5 5 6
3 2 -1 1 -1 2 2 3 5 5 4 6 4 5 6 5 5 5 5 4 4 1 -0 -1 -2 -2 -2 -3 -3 -3 -3 -3 -3 -3 -4 -4 -4 -5 -4 -4 -3 -2 -1 -0 -0 1 3 4 5
3 1 0 4 2 1 1 1 5 4 4 5 6 5 5 6 6 5 4 3 1 -1 -2 -3 -3 -3 -3 -4 -4 -4 -4 -4 -3 -4 -4 -4 -4 -5 -5 -5 -5 -3 -3 -2 -1 -0 2 3 4
2 0 1 -5 -7 -3 0 2 4 3 2 3 4 4 5 6 5 4 3 2 1 -1 -2 -4 -4 -4 -4 -5 -5 -4 -4 -4 -4 -4 -4 -4 -5 -5 -5 -6 -5 -5 -4 -2 -1 -0 1 3 4
2 0 1 -3 3 2 0 0 4 7 7 1 1 3 5 6 4 3 3 2 -0 -2 -3 -4 -4 -5 -5 -5 -5 -5 -5 -4 -4 -4 -4 -4 -4 -5 -5 -5 -5 -4 -4 -3 -1 0 1 2 5
0 -1 -3 -1 -1 -0 -3 3 1 3 5 0 -1 4 3 4 3 2 2 1 -1 -2 -3 -4 -4 -4 -5 -5 -6 -5 -4 -4 -4 -5 -4 -3 -3 -4 -5 -5 -5 -4 -4 -3 -2 -1 0 2 4
2 1 -1 -0 0 -4 -4 1 4 2 1 1 2 4 4 3 2 2 1 0 -1 -2 -3 -4 -5 -4 -5 -6 -6 -5 -5 -4 -5 -4 -4 -4 -4 -3 -4 -4 -4 -4 -4 -3 -2 -1 -0 2 4
Height
1491 1491 1491 1492 1504 1506 1509 1502 1493 1492 1489 1487 1485 1484 1487 1489 1490 1499 1492 1491 1491 1490 1489 1491 1491 1494 1495 1497 1499 1500 1501 1502 1504 1505 1505 1506 1507 1508 1509 1510 1511 1512 1513 1513 1514 1516 1517 1520 1523
1490 1490 1491 1492 1509 1512 1510 1497 1494 1489 1487 1485 1485 1485 1487 1490 1489 1490 1491 1491 1490 1489 1489 1490 1491 1493 1495 1496 1497 1499 1501 1501 1501 1503 1503 1503 1505 1505 1508 1509 1510 1511 1512 1513 1514 1515 1517 1518 1521
1489 1490 1492 1496 1505 1509 1505 1493 1491 1487 1487 1484 1485 1485 1487 1489 1490 1490 1491 1491 1490 1489 1490 1491 1491 1492 1494 1496 1496 1498 1500 1501 1500 1501 1501 1501 1502 1505 1505 1509 1510 1511 1511 1512 1514 1515 1517 1518 1520
1488 1490 1494 1500 1502 1497 1495 1490 1490 1487 1486 1486 1486 1488 1488 1489 1490 1491 1490 1490 1490 1490 1490 1491 1493 1493 1494 1495 1496 1497 1498 1499 1500 1499 1499 1500 1499 1503 1504 1506 1509 1511 1511 1512 1514 1515 1516 1517 1519
1488 1490 1499 1501 1499 1493 1489 1488 1489 1488 1489 1488 1487 1488 1490 1490 1490 1491 1489 1489 1489 1490 1491 1491 1493 1493 1494 1495 1495 1496 1497 1498 1498 1498 1497 1498 1499 1500 1502 1504 1506 1509 1510 1511 1512 1514 1516 1517 1518
1488 1490 1503 1504 1498 1490 1487 1487 1487 1488 1489 1489 1489 1489 1489 1491 1491 1491 1490 1490 1490 1490 1490 1490 1491 1490 1492 1494 1495 1495 1495 1496 1496 1496 1496 1496 1496 1497 1500 1501 1503 1506 1508 1509 1510 1512 1514 1516 1517
1487 1494 1499 1497 1495 1490 1487 1486 1487 1487 1487 1487 1487 1488 1489 1490 1491 1491 1490 1490 1489 1489 1489 1489 1489 1489 1489 1489 1490 1491 1493 1493 1493 1493 1493 1493 1494 1494 1497 1500 1499 1501 1505 1507 1508 1509 1512 1514 1516
1487 1491 1495 1495 1495 1490 1487 1486 1487 1487 1487 1487 1487 1488 1489 1490 1490 1489 1490 1490 1489 1489 1489 1488 1488 1487 1487 1487 1488 1488 1488 1489 1490 1489 1490 1490 1491 1493 1494 1497 1499 1499 1501 1504 1505 1506 1510 1512 1513
1487 1497 1501 1492 1494 1489 1489 1488 1487 1488 1487 1487 1487 1488 1489 1489 1489 1489 1489 1488 1488 1489 1487 1486 1485 1485 1485 1485 1485 1485 1484 1485 1485 1486 1486 1487 1487 1488 1490 1493 1496 1497 1499 1501 1503 1504 1506 1510 1511
1488 1499 1494 1491 1491 1491 1490 1490 1489 1489 1488 1486 1486 1487 1487 1487 1487 1487 1487 1486 1487 1486 1486 1485 1483 1482 1483 1482 1483 1481 1481 1480 1477 1473 1481 1480 1482 1485 1485 1487 1491 1493 1495 1497 1499 1501 1503 1505 1508
1488 1494 1489 1489 1490 1491 1491 1491 1489 1489 1488 1485 1485 1485 1485 1485 1485 1484 1485 1485 1485 1485 1484 1482 1481 1480 1480 1480 1479 1478 1477 1478 1477 1474 1472 1466 1474 1479 1480 1482 1484 1486 1490 1492 1495 1497 1499 1500 1503
1488 1487 1488 1489 1490 1490 1489 1488 1487 1486 1482 1482 1482 1482 1483 1483 1483 1483 1483 1483 1482 1482 1481 1480 1480 1479 1479 1477 1476 1475 1473 1474 1474 1473 1472 1466 1463 1470 1474 1477 1479 1481 1483 1485 1489 1491 1494 1497 1499
1487 1487 1487 1488 1489 1488 1487 1486 1486 1479 1478 1480 1480 1481 1482 1482 1481 1481 1480 1480 1480 1480 1479 1479 1479 1478 1477 1476 1474 1473 1472 1471 1470 1469 1468 1468 1469 1464 1466 1470 1473 1476 1479 1481 1484 1487 1490 1493 1494
1486 1486 1486 1487 1487 1487 1487 1484 1484 1475 1474 1478 1479 1479 1479 1477 1478 1477 1477 1477 1478 1478 1478 1477 1476 1475 1474 1472 1471 1470 1468 1467 1466 1466 1465 1464 1464 1464 1460 1461 1463 1468 1472 1476 1479 1481 1484 1488 1491
1485 1487 1486 1487 1488 1487 1487 1482 1481 1474 1475 1476 1477 1476 1473 1472 1473 1474 1474 1475 1475 1475 1475 1474 1472 1471 1470 1468 1465 1464 1464 1462 1460 1459 1459 1459 1458 1455 1455 1459 1456 1458 1463 1470 1472 1474 1478 1482 1485
1488 1490 1491 1489 1488 1488 1487 1483 1472 1473 1473 1474 1472 1471 1469 1470 1470 1470 1471 1472 1471 1471 1471 1470 1468 1466 1464 1462 1460 1457 1456 1455 1454 1453 1452 1453 1453 1453 1452 1449 1451 1450 1452 1457 1462 1465 1469 1474 1477
1494 1490 1492 1492 1491 1491 1489 1484 1473 1473 1471 1468 1468 1467 1466 1468 1469 1469 1470 1471 1470 1468 1467 1466 1464 1461 1458 1455 1452 1449 1447 1445 1444 1443 1442 1442 1443 1445 1444 1441 1442 1444 1446 1446 1450 1451 1458 1464 1469
1486 1490 1494 1498 1492 1491 1490 1482 1470 1470 1470 1463 1460 1462 1465 1467 1467 1468 1469 1469 1469 1465 1463 1461 1458 1455 1451 1446 1441 1437 1433 1431 1431 1430 1430 1430 1431 1433 1434 1433 1433 1434 1435 1439 1438 1441 1445 1452 1459
1494 1496 1499 1497 1493 1493 1488 1484 1466 1464 1464 1459 1460 1461 1464 1465 1467 1467 1468 1467 1465 1462 1458 1455 1450 1446 1440 1434 1427 1423 1418 1416 1414 1413 1413 1415 1418 1420 1422 1422 1422 1425 1426 1430 1430 1431 1432 1439 1447
1493 1497 1500 1495 1493 1497 1491 1475 1464 1459 1457 1456 1458 1461 1463 1465 1466 1465 1464 1462 1459 1455 1450 1445 1440 1435 1429 1423 1417 1413 1407 1403 1401 1401 1400 1401 1402 1405 1407 1409 1410 1412 1416 1419 1422 1422 1421 1426 1429
1494 1496 1497 1499 1498 1497 1495 1472 1461 1457 1457 1457 1459 1461 1463 1462 1461 1460 1459 1457 1453 1448 1443 1437 1430 1424 1419 1414 1407 1403 1399 1395 1392 1390 1388 1389 1390 1391 1392 1394 1396 1399 1400 1403 1405 1410 1414 1409 1416
1487 1496 1497 1500 1504 1510 1496 1502 1466 1459 1459 1458 1458 1458 1458 1458 1459 1457 1455 1451 1447 1442 1435 1429 1422 1416 1411 1407 1400 1395 1389 1384 1384 1381 1378 1377 1377 1378 1380 1381 1383 1386 1388 1388 1393 1397 1405 1405 1402
1493 1496 1497 1500 1508 1510 1499 1514 1471 1464 1460 1455 1454 1455 1457 1456 1454 1452 1449 1445 1440 1434 1426 1420 1413 1409 1404 1398 1394 1389 1383 1379 1374 1371 1368 1367 1366 1366 1368 1370 1372 1374 1376 1379 1383 1385 1387 1396 1400
1495 1497 1500 1507 1509 1532 1501 1502 1474 1463 1452 1448 1449 1452 1455 1453 1450 1447 1443 1439 1433 1428 1420 1413 1406 1400 1396 1391 1386 1381 1376 1371 1366 1362 1359 1356 1354 1353 1354 1356 1359 1361 1364 1367 1369 1373 1374 1382 1390
1495 1501 1531 1521 1534 1514 1504 1502 1464 1449 1448 1446 1446 1449 1452 1449 1445 1441 1438 1433 1427 1420 1413 1406 1399 1392 1388 1383 1378 1374 1369 1364 1358 1354 1350 1347 1344 1343 1342 1344 1346 1347 1350 1354 1360 1365 1368 1370 1371
1495 1500 1518 1515 1518 1513 1507 1502 1456 1445 1443 1444 1445 1447 1448 1444 1440 1437 1433 1428 1421 1415 1408 1399 1393 1386 1381 1376 1371 1367 1363 1358 1353 1348 1343 1339 1335 1333 1333 1333 1335 1338 1340 1344 1349 1353 1357 1362 1364
1498 1505 1503 1536 1556 1539 1505 1481 1449 1442 1442 1442 1444 1444 1443 1440 1436 1433 1429 1423 1417 1410 1403 1395 1388 1381 1376 1370 1365 1360 1355 1350 1344 1340 1335 1330 1326 1323 1322 1323 1324 1326 1329 1333 1338 1340 1345 1352 1359
1493 1499 1506 1522 1508 1518 1503 1496 1465 1437 1435 1442 1443 1442 1440 1437 1434 1429 1424 1420 1414 1407 1399 1392 1385 1378 1371 1365 1360 1353 1347 1341 1336 1329 1323 1319 1316 1314 1313 1313 1314 1317 1319 1324 1327 1330 1336 1341 1344
1500 1505 1509 1507 1512 1522 1537 1478 1445 1439 1436 1439 1439 1438 1436 1433 1430 1425 1421 1417 1411 1403 1396 1389 1381 1374 1367 1360 1354 1347 1340 1334 1327 1321 1314 1309 1307 1305 1304 1304 1306 1308 1311 1315 1319 1323 1327 1333 1337
1485 1488 1496 1505 1509 1526 1528 1476 1433 1435 1434 1434 1433 1433 1431 1428 1425 1421 1418 1413 1407 1401 1394 1386 1378 1371 1364 1357 1349 1342 1335 1328 1321 1313 1306 1300 1297 1296 1296 1297 1299 1301 1303 1306 1310 1314 1319 1325 1330
Wind_Speed
3 3 3 3 3 4 2 4 2 5 1 4 1 4 6 4 2 2 1 6 5 1 1 4 11 13 16 16 15 18 20 21 21 21 20 20 19 18 18 17 17 18 19 19 18 19 17 19 20
3 2 4 3 4 2 4 3 3 3 3 2 1 2 5 2 3 1 3 6 5 2 2 1 10 13 15 16 16 15 16 18 20 20 20 19 19 19 18 17 17 17 16 17 20 21 20 20 24
3 5 3 3 3 4 4 4 4 4 5 4 2 6 2 1 3 4 7 8 5 1 1 0 5 12 15 16 17 18 17 16 17 18 18 19 19 19 19 17 16 14 14 15 20 23 21 21 23
5 4 4 4 4 5 5 0 2 6 1 7 2 4 3 4 3 6 6 8 6 1 0 1 4 6 14 15 18 19 19 17 17 16 16 17 17 19 18 18 18 19 16 15 16 16 20 19 22
5 3 2 2 4 4 4 2 3 2 1 4 2 0 2 2 2 5 6 6 4 2 1 3 3 3 8 14 17 19 20 20 18 17 16 16 16 22 22 20 22 21 19 18 14 15 17 15 20
3 3 2 3 4 4 2 5 3 0 3 1 4 1 2 1 1 3 7 7 4 2 4 8 12 6 10 14 17 19 20 22 21 19 18 19 18 22 25 24 24 23 21 19 17 16 16 17 18
5 3 3 2 3 2 1 5 2 3 2 2 4 0 2 3 2 3 6 8 6 4 6 9 13 18 18 17 18 20 22 24 24 23 22 23 22 23 24 25 27 26 24 21 18 17 18 17 22
4 3 1 3 3 3 3 3 1 4 2 4 2 1 1 2 3 4 6 7 7 8 8 9 10 15 19 20 19 21 24 26 26 25 25 25 25 24 24 25 27 27 27 25 24 22 21 19 26
4 3 1 3 4 2 4 5 2 5 6 6 4 3 3 3 6 9 9 8 8 10 11 12 13 14 15 14 19 23 24 26 28 29 29 28 28 28 27 27 28 29 29 27 25 25 22 22 29
4 3 6 1 1 1 2 3 6 6 7 5 8 8 6 8 10 10 10 11 10 9 11 14 17 18 19 19 19 20 19 15 23 31 32 33 32 31 30 30 30 30 29 28 27 25 25 25 33
3 5 3 1 1 1 1 3 3 1 4 7 6 8 12 9 4 3 5 8 9 8 12 15 14 15 16 18 21 23 22 20 23 15 27 32 34 34 33 33 33 31 29 27 27 26 28 30 38
3 2 2 0 1 1 3 3 4 10 9 8 13 11 8 4 4 6 7 8 9 9 14 12 10 10 12 13 14 17 20 23 24 23 23 16 24 35 34 36 36 36 33 30 30 28 33 33 37
2 1 1 2 5 6 6 8 7 16 22 15 4 3 8 12 11 10 11 11 8 8 10 9 11 12 13 14 17 18 19 20 19 21 23 27 24 13 32 38 38 38 36 33 33 33 34 35 37
2 0 4 2 2 3 3 4 1 6 5 10 7 10 20 21 17 14 13 9 8 8 8 9 12 16 17 18 18 20 22 24 24 25 26 26 26 28 16 21 41 41 41 39 37 39 38 39 39
1 1 1 4 6 3 8 4 7 6 5 6 13 22 20 14 14 15 13 6 7 8 10 12 15 18 21 24 25 26 26 27 29 29 28 28 32 29 35 33 18 46 44 43 44 43 43 39 43
3 4 2 2 7 2 4 8 2 7 3 21 19 13 10 6 9 5 4 5 9 11 14 16 18 21 24 28 31 34 35 35 36 36 36 35 34 37 32 39 39 21 48 47 48 50 47 44 46
6 1 2 7 4 4 3 8 4 7 24 25 14 11 2 1 4 4 5 7 9 9 13 18 23 28 33 37 39 42 44 45 46 45 45 44 43 42 42 37 40 35 30 48 54 54 50 49 47
2 1 2 5 4 5 6 16 14 20 20 21 15 6 1 5 5 2 3 6 10 13 19 26 32 37 41 45 48 50 51 52 51 51 51 51 49 46 43 44 41 36 41 36 47 56 50 50 50
6 3 2 4 3 5 5 10 20 15 14 10 5 3 4 7 4 3 6 11 17 22 28 36 42 44 45 47 49 50 52 53 54 53 53 51 49 47 44 46 48 42 39 47 37 45 56 53 51
4 2 4 5 1 1 7 20 14 6 5 4 7 8 9 4 3 8 14 19 26 33 38 41 44 47 48 47 47 45 45 47 47 47 46 45 44 45 49 49 49 47 43 45 51 33 40 53 56
3 3 2 1 7 3 7 7 5 2 1 3 9 9 6 2 11 15 22 28 34 38 40 43 46 45 41 39 39 40 40 41 43 43 42 40 39 38 40 43 46 48 46 46 49 58 36 47 58
1 4 3 3 4 3 4 4 5 4 5 4 8 10 6 5 13 19 27 32 36 38 39 42 42 39 36 34 35 37 41 44 41 41 42 42 40 38 36 37 39 41 44 44 47 53 59 28 59
2 2 2 1 1 3 2 3 7 2 7 8 10 14 8 8 16 23 29 33 37 39 41 43 39 36 35 34 34 36 38 41 42 42 42 41 42 40 38 36 35 36 36 38 39 46 57 63 28
4 4 5 4 2 3 2 3 6 5 6 3 5 15 7 14 20 25 30 35 38 40 41 40 37 36 35 34 33 34 35 37 40 41 42 42 41 41 39 38 39 44 45 46 43 43 46 60 60
2 5 3 5 4 5 3 1 11 6 6 4 7 11 6 16 22 27 32 36 39 41 40 37 36 37 34 33 31 30 32 35 38 40 41 42 41 40 40 35 36 39 43 47 43 41 45 44 56
2 5 5 5 2 4 3 6 6 5 2 8 8 9 10 20 24 27 31 35 37 38 37 36 36 36 34 32 30 29 29 32 35 38 39 40 41 41 37 35 33 34 33 36 38 40 44 44 41
3 1 2 7 2 3 3 7 10 6 7 6 10 7 15 22 24 26 30 33 37 37 36 35 34 33 33 30 29 29 29 30 33 35 35 37 37 39 38 35 36 36 35 35 36 44 44 37 38
2 5 3 3 1 4 5 6 6 4 3 6 8 8 17 25 23 25 29 32 34 34 34 34 31 32 31 29 28 29 30 30 32 33 36 36 35 33 33 31 29 28 28 36 34 35 35 35 33
2 1 4 3 3 4 2 6 8 7 5 7 8 12 17 22 23 24 27 29 32 32 33 33 31 31 30 29 29 29 30 29 30 32 33 32 33 29 27 28 30 29 30 28 32 34 37 37 30
2 5 5 4 5 1 3 8 3 7 7 8 12 16 23 22 20 22 25 28 31 32 33 31 31 30 29 29 28 28 29 28 29 28 28 27 31 29 27 25 26 27 30 31 33 33 34 39 29
Wind_Direction
256 260 193 156 69 70 275 267 251 321 330 325 48 81 112 58 64 184 293 346 320 296 91 240 205 210 203 208 211 213 215 217 219 220 221 224 223 224 222 219 216 214 215 210 201 187 194 182 179
233 177 141 121 103 104 262 263 229 233 287 325 33 46 63 80 71 60 353 335 336 164 81 199 209 210 212 210 216 217 218 219 221 224 227 228 227 219 221 218 216 210 207 192 181 186 191 186 180
184 168 135 113 125 174 205 223 240 303 337 25 90 57 83 108 61 15 353 358 6 121 95 123 219 220 218 221 221 225 225 228 225 227 228 230 226 218 214 213 207 204 201 200 193 190 197 194 186
157 127 67 104 207 244 206 213 296 312 176 34 51 54 97 73 58 352 355 5 18 18 253 340 359 269 233 233 230 232 233 235 237 235 232 231 221 206 210 206 203 196 198 205 196 193 199 196 193
147 115 91 149 244 254 241 261 300 291 348 17 56 263 67 81 53 355 354 3 14 52 218 239 288 338 277 253 249 244 239 239 243 244 235 227 222 206 206 206 201 203 204 198 207 211 206 202 198
100 93 71 223 232 245 274 354 303 205 66 39 53 28 186 219 299 346 351 5 11 300 245 245 241 234 247 258 267 258 250 248 245 244 235 231 216 211 212 212 207 206 201 200 212 232 226 217 207
120 96 213 223 245 278 240 350 28 334 338 58 1 283 162 180 344 340 333 338 348 314 277 262 261 250 251 250 251 254 264 260 248 242 234 231 226 213 216 218 209 207 214 219 229 237 233 230 200
122 97 196 244 209 249 19 9 10 28 334 340 4 265 319 210 295 314 319 310 315 309 297 288 284 273 258 262 257 250 251 259 259 244 235 232 229 227 221 221 222 219 222 231 234 237 244 229 187
118 68 235 255 164 273 359 20 360 333 299 307 287 269 210 260 295 305 307 299 289 287 291 288 288 290 288 287 268 259 254 255 259 250 238 235 233 226 225 223 225 229 233 234 238 238 238 223 198
100 126 217 236 162 104 344 4 329 342 339 302 281 257 245 291 298 303 317 315 301 297 296 291 290 288 287 286 284 285 286 274 268 245 245 233 234 232 230 228 230 233 234 237 238 236 228 219 205
154 183 208 244 98 49 323 273 230 218 276 231 267 275 281 288 271 282 297 315 318 320 325 323 312 304 300 294 291 288 291 294 300 297 268 244 234 234 231 232 233 231 229 231 233 232 227 221 207
151 194 163 119 193 245 245 266 254 214 241 291 287 276 284 282 279 291 290 300 305 315 325 329 333 332 328 327 322 316 307 299 292 292 278 294 243 241 235 234 234 232 227 225 225 232 228 222 211
151 235 255 252 265 267 269 246 242 258 270 271 236 243 293 287 281 290 288 279 291 309 328 342 338 332 330 329 330 329 325 325 320 314 311 293 290 267 245 239 240 236 231 230 226 231 233 224 216
157 282 298 273 335 279 293 285 20 278 179 198 257 267 307 287 270 276 288 272 270 304 323 322 314 313 313 311 306 305 306 307 309 312 316 316 302 285 262 263 245 242 237 236 234 230 231 229 224
86 161 22 28 344 330 331 270 230 236 204 266 288 295 296 293 264 271 276 249 241 274 283 291 296 298 295 294 295 293 292 293 295 295 296 301 305 308 280 274 279 245 241 244 237 232 229 231 228
57 56 9 8 9 4 33 276 294 179 346 311 307 316 315 298 282 256 204 224 250 262 270 279 285 287 289 289 290 291 290 289 288 288 289 288 289 291 287 282 273 273 242 237 244 231 227 228 229
18 230 320 324 60 338 69 278 278 224 312 308 314 336 352 355 160 181 222 251 263 282 292 292 291 293 292 290 288 287 286 284 284 282 282 283 283 283 277 278 276 268 273 234 232 233 226 225 227
199 354 299 253 323 7 286 271 280 288 299 299 311 332 117 152 137 175 253 276 286 293 296 296 295 294 294 294 292 290 289 286 283 280 278 277 277 275 266 269 270 273 260 264 228 231 224 229 227
108 103 282 270 326 357 267 275 284 288 278 269 256 246 179 177 182 242 281 294 299 303 303 302 301 300 300 299 298 295 292 289 287 285 284 280 274 269 264 260 263 262 259 258 259 229 226 219 229
90 99 273 278 337 339 303 291 278 264 242 215 195 170 171 176 286 310 312 313 314 315 315 314 311 309 306 302 300 299 296 293 290 288 287 285 281 273 266 261 260 263 255 254 249 249 222 213 217
132 167 197 232 333 235 296 292 341 33 113 175 188 171 164 349 332 324 323 323 323 323 316 314 313 311 308 307 304 300 295 291 292 292 291 289 284 279 272 265 259 260 261 252 252 246 251 205 214
189 146 80 334 3 281 16 277 302 294 284 227 200 195 196 329 331 328 328 327 326 324 321 318 314 311 310 310 306 303 301 299 298 295 292 290 287 281 272 265 261 256 256 254 246 247 241 245 217
154 78 73 74 115 16 343 61 273 343 267 240 223 215 218 318 330 329 330 329 330 328 326 322 319 314 314 312 308 303 299 298 298 296 293 289 286 281 273 262 253 249 250 249 244 244 240 242 239
142 91 53 48 46 13 264 108 275 208 217 228 205 211 233 331 333 331 332 332 330 328 325 323 321 318 317 314 308 303 299 299 297 297 296 293 289 284 278 269 256 249 245 237 240 240 245 242 242
90 73 342 350 7 222 360 308 248 258 244 227 206 193 280 330 334 333 332 332 330 329 328 327 325 323 322 316 312 306 302 301 299 298 297 296 292 285 279 273 264 255 250 246 244 242 244 247 242
157 154 154 218 247 280 332 235 250 219 299 247 196 195 308 334 336 331 332 332 333 330 332 330 329 325 323 321 317 312 306 301 297 295 295 292 290 287 284 269 254 247 245 239 238 238 240 240 244
200 126 132 101 55 40 255 286 288 246 253 186 211 250 325 336 329 328 333 336 334 335 336 333 331 328 326 324 323 317 311 306 299 294 290 288 288 284 277 264 256 255 251 247 245 242 242 237 240
139 142 78 4 92 297 283 279 244 292 274 233 243 249 330 331 324 330 336 337 337 340 338 336 335 332 331 330 325 320 316 310 302 297 291 287 289 283 274 263 258 254 247 233 229 230 227 232 236
130 359 46 112 120 174 277 262 218 225 233 238 232 240 334 329 323 330 335 338 340 344 340 340 339 337 338 335 332 326 320 315 309 303 295 283 281 279 270 256 254 253 244 241 237 239 232 223 239
169 181 159 124 227 159 140 270 195 226 248 232 231 255 316 320 320 328 335 339 346 346 346 344 345 341 342 339 334 330 327 324 319 315 306 291 278 270 265 255 253 247 242 237 236 236 227 218 233